"America/Chicago Time","Lifetime Energy (kWh)","Power (W)","AC Volts RMS (V) ","AC Amps RMS (mA)","Grid Frequency (Hz)","Inverter Temperature (C)"
"04/09/12 12:26:15","54.4672","80.7","215.5","401","60.0","11"
"04/09/12 12:31:16","54.4759","43.9","214.69","100","59.96","10"
"04/09/12 12:36:15","54.4802","43.8","214.28","414","60.03","9"
"04/09/12 12:41:15","54.4842","58.3","214.81","340","60.03","9"
"04/09/12 12:46:16","54.4881","54.7","215.06","365","60.03","9"
"04/09/12 12:51:17","54.493","65.8","215.67","332","60.0","9"
"04/09/12 12:56:16","54.4965","62.0","215.77","311","60.03","8"
"04/09/12 13:01:15","54.5009","66.0","216.53","332","60.0","8"
"04/09/12 13:06:16","54.5058","45.4","215.72","434","60.0","8"
"04/09/12 13:11:16","54.5099","58.5","214.97","93","60.03","8"
"04/09/12 13:16:15","54.5133","53.8","214.18","139","60.03","8"
"04/09/12 13:21:15","54.5187","71.9","215.3","358","60.0","8"
"04/09/12 13:26:15","54.5238","36.0","214.49","245","60.0","8"
"04/09/12 13:31:15","54.5267","38.5","214.96","145","60.0","8"
"04/09/12 13:36:16","54.5303","61.9","214.9","306","60.0","7"
"04/09/12 13:41:16","54.534","42.7","215.09","310","60.0","7"
"04/09/12 13:46:17","54.5368","54.1","214.7","141","60.03","7"
"04/09/12 13:51:15","54.5403","33.5","214.93","155","60.03","7"
"04/09/12 13:56:15","54.5426","25.2","214.92","143","60.03","7"
"04/09/12 14:01:15","54.544","13.6","214.48","6","60.0","7"
"04/09/12 14:06:16","54.5454","19.9","214.68","157","60.03","6"
"04/09/12 14:11:16","54.5466","10.7","215.06","35","60.03","6"
"04/09/12 14:16:15","54.5473","0.0","214.83","101","60.03","6"
"04/09/12 14:21:16","54.5482","11.7","215.61","2","60.0","6"
"04/09/12 14:26:16","54.5489","0.0","215.03","0","59.96","6"
"04/09/12 14:31:17","54.5495","15.2","214.96","30","60.0","6"
"04/09/12 14:36:15","54.5514","30.4","215.58","87","60.03","6"
"04/09/12 14:41:16","54.5536","23.5","214.85","278","60.0","6"
"04/09/12 14:46:16","54.5559","32.7","215.1","179","60.0","6"
"04/09/12 14:51:15","54.5588","42.4","215.86","377","60.0","6"
"04/09/12 14:56:16","54.5653","87.9","216.64","428","60.03","6"
"04/09/12 15:01:16","54.5727","75.6","216.53","375","60.03","7"
"04/09/12 15:06:16","54.5793","74.9","216.32","372","60.07","7"
"04/09/12 15:11:16","54.5854","43.2","215.53","228","60.0","7"
"04/09/12 15:16:17","54.591","75.7","216.78","374","60.03","7"
"04/09/12 15:21:16","54.5975","183.9","218.67","829","60.0","7"
"04/09/12 15:26:16","54.6043","46.0","214.99","314","60.0","7"
"04/09/12 15:31:17","54.6077","76.1","216.17","373","60.03","7"
"04/09/12 15:36:15","54.6139","64.4","216.06","327","60.0","7"
"04/09/12 15:41:15","54.6178","42.8","214.95","290","60.0","7"
"04/09/12 15:46:15","54.6202","35.9","215.08","249","60.03","6"
"04/09/12 15:51:15","54.6225","34.1","215.25","119","60.03","6"
"04/09/12 15:56:15","54.625","18.8","214.38","23","60.03","6"
"04/09/12 16:01:16","54.6267","19.3","214.49","20","60.03","6"
"04/09/12 16:06:16","54.6287","23.5","215.0","258","60.03","6"
"04/09/12 16:11:16","54.6314","46.1","215.43","340","59.96","6"
"04/09/12 16:16:15","54.6343","15.3","214.59","22","60.03","6"
"04/09/12 16:21:16","54.6351","0.0","214.0","0","60.03","6"
"04/09/12 16:26:15","54.6369","47.6","214.92","366","60.03","6"
"04/09/12 16:31:15","54.6401","38.8","214.34","298","60.03","6"
"04/09/12 16:36:16","54.6425","26.0","214.74","194","60.0","6"
"04/09/12 16:41:15","54.6449","26.5","213.7","90","60.0","6"
"04/09/12 16:46:15","54.6472","34.9","214.18","104","60.03","6"
"04/09/12 16:51:16","54.6492","34.1","214.83","218","60.03","6"
"04/09/12 16:56:16","54.6514","29.4","214.87","161","60.0","6"
"04/09/12 17:01:16","54.6544","37.6","215.38","113","60.03","6"
"04/09/12 17:06:15","54.6579","43.9","215.6","234","60.03","6"
"04/09/12 17:11:15","54.6605","32.5","214.95","219","60.03","6"
"04/09/12 17:16:16","54.663","28.9","214.45","221","60.0","6"
"04/09/12 17:21:16","54.6652","23.3","215.26","164","60.0","6"
"04/09/12 17:26:15","54.6672","25.8","214.24","103","60.03","6"
"04/09/12 17:31:16","54.669","26.9","215.05","116","60.0","6"
"04/09/12 17:36:16","54.6706","19.9","213.9","66","60.03","6"
"04/09/12 17:41:16","54.6719","16.3","214.4","34","60.0","6"
"04/09/12 17:46:16","54.6731","13.7","213.92","3","60.03","6"
"04/09/12 17:51:15","54.6742","13.6","213.94","3","60.03","6"
"04/09/12 17:56:15","54.6751","14.2","213.05","1","60.03","6"
"04/09/12 18:01:15","54.6756","0.0","213.81","164","60.03","6"
"04/09/12 18:06:15","54.6761","1.0","214.45","0","60.07","6"
"04/09/12 18:11:15","54.6768","12.8","213.64","42","60.0","6"
"04/09/12 18:16:17","54.6774","14.9","214.24","72","60.03","5"
"04/09/12 18:21:16","54.6777","0.0","213.49","0","60.0","5"
"04/09/12 18:26:15","54.6781","0.0","213.29","0","60.03","5"
"04/10/12 06:51:17","54.6782","13.5","214.2","33","60.03","2"
"04/10/12 06:56:16","54.6784","0.0","214.14","0","60.03","2"
"04/10/12 07:01:16","54.6786","0.0","212.33","0","59.96","2"
"04/10/12 07:06:15","54.6791","13.1","213.38","55","60.03","3"
"04/10/12 07:11:15","54.6797","0.0","213.32","140","60.03","3"
"04/10/12 07:16:17","54.6806","13.1","213.4","274","60.0","3"
"04/10/12 07:21:16","54.6818","12.8","213.37","44","60.03","3"
"04/10/12 07:26:15","54.6833","20.9","213.47","52","60.0","4"
"04/10/12 07:31:16","54.685","16.0","213.74","280","60.0","4"
"04/10/12 07:36:16","54.6872","26.0","213.42","189","60.03","4"
"04/10/12 07:41:17","54.6897","30.6","213.58","143","60.03","4"
"04/10/12 07:46:15","54.6926","36.3","214.52","302","60.03","5"
"04/10/12 07:51:16","54.6958","51.3","215.25","389","60.03","5"
"04/10/12 07:56:16","54.6995","51.8","214.63","171","60.03","5"
"04/10/12 08:01:16","54.7033","46.8","214.39","100","60.0","5"
"04/10/12 08:06:17","54.7072","56.0","214.6","130","60.03","6"
"04/10/12 08:11:16","54.711","58.9","214.73","241","60.03","6"
"04/10/12 08:16:17","54.7149","64.7","214.4","208","60.03","6"
"04/10/12 08:21:17","54.7189","43.9","215.77","291","60.07","6"
"04/10/12 08:26:15","54.7232","53.9","214.73","201","60.0","6"
"04/10/12 08:31:16","54.7278","59.9","215.38","202","60.03","6"
"04/10/12 08:36:17","54.7326","63.1","215.64","324","60.03","6"
"04/10/12 08:41:16","54.7375","66.5","215.05","333","60.0","6"
"04/10/12 08:46:16","54.7427","65.2","214.88","333","60.03","6"
"04/10/12 08:51:16","54.748","71.8","215.26","358","60.0","7"
"04/10/12 08:56:16","54.7537","74.7","216.28","368","60.03","7"
"04/10/12 09:01:16","54.7619","116.8","216.43","550","60.0","7"
"04/10/12 09:06:15","54.771","119.4","215.87","559","60.03","8"
"04/10/12 09:11:16","54.7795","110.8","215.77","527","60.0","8"
"04/10/12 09:16:17","54.7883","113.6","216.25","538","60.03","8"
"04/10/12 09:21:17","54.7975","120.9","216.58","569","60.0","8"
"04/10/12 09:26:17","54.8077","136.2","217.11","633","60.0","8"
"04/10/12 09:31:16","54.8188","143.6","216.9","666","60.03","9"
"04/10/12 09:36:16","54.83","147.5","217.86","679","60.03","9"
"04/10/12 09:41:16","54.8389","64.5","214.81","370","60.0","9"
"04/10/12 09:46:16","54.8426","39.6","214.44","220","60.03","8"
"04/10/12 09:51:16","54.8464","37.6","215.26","78","60.03","7"
"04/10/12 09:56:17","54.8507","63.7","214.52","382","60.03","7"
"04/10/12 10:01:15","54.8548","42.3","213.68","405","60.0","7"
"04/10/12 10:06:17","54.8593","43.8","214.16","423","60.03","6"
"04/10/12 10:11:15","54.8636","48.0","214.72","401","60.0","6"
"04/10/12 10:16:16","54.8682","63.7","214.56","324","60.0","6"
"04/10/12 10:21:16","54.8731","63.9","214.08","329","60.03","6"
"04/10/12 10:26:16","54.8784","74.3","215.0","370","60.03","6"
"04/10/12 10:31:16","54.8843","79.3","215.38","388","60.0","6"
"04/10/12 10:36:15","54.8899","70.0","214.96","351","60.03","6"
"04/10/12 10:41:16","54.8953","70.7","214.72","356","60.03","6"
"04/10/12 10:46:16","54.9008","72.5","215.18","362","60.03","6"
"04/10/12 10:51:16","54.9066","73.2","215.75","364","60.03","6"
"04/10/12 10:56:17","54.9123","65.3","214.84","328","60.03","6"
"04/10/12 11:01:17","54.9172","64.3","215.25","326","60.0","6"
"04/10/12 11:06:16","54.9222","61.7","215.46","406","59.96","6"
"04/10/12 11:11:16","54.9263","52.6","215.51","214","60.03","6"
"04/10/12 11:16:17","54.93","48.6","215.33","365","60.03","6"
"04/10/12 11:21:16","54.9332","37.5","215.05","245","60.03","6"
"04/10/12 11:26:17","54.937","60.8","215.76","87","60.03","6"
"04/10/12 11:31:17","54.9415","60.2","214.67","430","60.03","6"
"04/10/12 11:36:16","54.9465","73.7","214.9","368","60.03","6"
"04/10/12 11:41:17","54.9542","116.1","215.69","548","60.03","6"
"04/10/12 11:46:16","54.9644","172.6","216.98","785","60.03","7"
"04/10/12 11:51:16","54.9788","187.5","217.19","850","60.03","9"
"04/10/12 11:56:17","54.9933","188.6","217.79","854","60.07","10"
"04/10/12 12:01:16","55.0069","155.0","216.36","714","60.0","11"
"04/10/12 12:06:17","55.0217","196.5","217.47","891","60.0","11"
"04/10/12 12:11:17","55.0358","176.3","217.51","798","60.0","11"
"04/10/12 12:16:16","55.0504","156.5","217.0","721","60.0","11"
"04/10/12 12:21:16","55.0609","95.2","215.11","458","60.0","11"
"04/10/12 12:26:16","55.0713","143.9","216.43","665","60.03","11"
"04/10/12 12:31:16","55.0783","62.0","213.46","320","60.03","9"
"04/10/12 12:36:16","55.0831","63.0","215.29","319","60.03","8"
"04/10/12 12:41:16","55.088","44.2","215.36","384","60.03","7"
"04/10/12 12:46:16","55.0913","36.5","214.05","256","60.03","6"
"04/10/12 12:51:15","55.0945","49.4","213.45","390","60.03","6"
"04/10/12 12:56:16","55.0982","45.0","214.72","264","60.03","6"
"04/10/12 13:01:16","55.1029","67.3","215.81","340","60.0","6"
"04/10/12 13:06:16","55.1086","74.2","215.84","371","60.03","6"
"04/10/12 13:11:16","55.1147","75.2","215.12","373","60.03","6"
"04/10/12 13:16:17","55.1221","103.0","216.19","494","60.0","6"
"04/10/12 13:21:16","55.1293","86.4","215.16","419","60.03","6"
"04/10/12 13:26:16","55.1361","86.6","215.67","426","60.03","6"
"04/10/12 13:31:16","55.1452","181.1","219.02","816","60.03","7"
"04/10/12 13:36:15","55.1564","118.7","217.24","557","60.03","8"
"04/10/12 13:41:16","55.1644","97.8","217.0","469","60.07","7"
"04/10/12 13:46:17","55.1771","154.9","218.24","710","60.03","9"
"04/10/12 13:51:15","55.1904","196.5","218.92","885","60.07","9"
"04/10/12 13:56:17","55.2036","166.9","218.62","761","60.03","10"
"04/10/12 14:01:17","55.2123","91.1","216.49","438","60.0","9"
"04/10/12 14:06:16","55.2205","85.0","215.64","416","60.03","9"
"04/10/12 14:11:17","55.23","116.1","216.49","547","60.03","9"
"04/10/12 14:16:17","55.2385","92.7","216.77","445","60.0","9"
"04/10/12 14:21:15","55.2473","140.4","217.8","649","60.03","9"
"04/10/12 14:26:16","55.2562","105.9","216.84","505","60.0","9"
"04/10/12 14:31:16","55.2649","142.2","217.15","659","60.0","9"
"04/10/12 14:36:17","55.2743","125.9","217.6","582","60.0","9"
"04/10/12 14:41:17","55.2833","114.2","217.25","536","60.0","9"
"04/10/12 14:46:15","55.2931","124.2","216.93","582","60.0","9"
"04/10/12 14:51:16","55.3031","140.3","217.18","651","60.03","9"
"04/10/12 14:56:17","55.3167","204.7","219.15","918","60.03","10"
"04/10/12 15:01:16","55.3308","184.9","218.38","839","60.03","11"
"04/10/12 15:06:17","55.3443","171.5","218.16","776","60.0","11"
"04/10/12 15:11:17","55.3571","162.0","217.46","740","60.03","11"
"04/10/12 15:16:16","55.3695","152.4","217.88","698","60.03","11"
"04/10/12 15:21:16","55.3817","156.3","219.0","713","60.03","11"
"04/10/12 15:26:16","55.3936","152.2","218.39","695","60.0","11"
"04/10/12 15:31:16","55.4055","146.1","217.95","673","60.03","11"
"04/10/12 15:36:17","55.4165","125.6","217.43","587","60.03","11"
"04/10/12 15:46:17","55.4378","138.7","217.07","640","60.03","10"
"04/10/12 15:51:17","55.4486","135.7","217.38","628","60.03","10"
"04/10/12 15:56:16","55.4589","132.9","217.24","618","60.03","10"
"04/10/12 16:01:17","55.4691","125.3","217.32","587","60.07","9"
"04/10/12 16:06:15","55.4783","112.6","216.73","534","60.0","9"
"04/10/12 16:11:16","55.4875","122.6","217.45","570","60.03","9"
"04/10/12 16:16:17","55.4965","83.5","216.69","406","60.0","9"
"04/10/12 16:21:16","55.5048","111.3","216.82","525","60.0","9"
"04/10/12 16:26:16","55.5132","106.1","216.85","505","60.03","9"
"04/10/12 16:31:17","55.5214","102.2","216.94","486","60.03","9"
"04/10/12 16:36:16","55.5288","90.8","216.92","440","60.0","9"
"04/10/12 16:41:17","55.5356","88.4","216.06","431","60.03","9"
"04/10/12 16:46:16","55.5423","87.7","215.98","425","60.03","9"
"04/10/12 16:51:17","55.5489","83.4","216.5","409","60.03","9"
"04/10/12 16:56:17","55.5552","78.0","215.61","385","60.03","9"
"04/10/12 17:01:16","55.5611","73.1","215.91","365","60.07","8"
"04/10/12 17:06:16","55.5665","67.6","215.52","344","60.03","8"
"04/10/12 17:11:16","55.5716","62.7","215.81","321","60.03","8"
"04/10/12 17:16:16","55.5759","39.7","215.78","308","60.03","8"
"04/10/12 17:21:15","55.5797","38.3","215.74","83","60.0","8"
"04/10/12 17:26:16","55.5835","55.7","216.17","296","60.03","8"
"04/10/12 17:31:17","55.5869","36.2","214.92","99","60.03","8"
"04/10/12 17:36:15","55.5901","43.4","206.68","328","60.03","7"
"04/10/12 17:41:16","55.5928","37.5","214.75","271","60.03","7"
"04/10/12 17:46:17","55.5952","25.3","215.23","97","60.03","7"
"04/10/12 17:51:17","55.5972","13.1","215.12","266","60.03","7"
"04/10/12 17:56:16","55.599","26.5","214.82","225","60.07","7"
"04/10/12 18:01:16","55.6003","12.0","214.7","7","60.03","7"
"04/10/12 18:06:17","55.6014","13.4","214.56","5","60.0","7"
"04/10/12 18:11:16","55.6023","11.7","213.92","20","60.03","7"
"04/10/12 18:16:16","55.603","0.0","214.23","0","60.03","7"
"04/10/12 18:21:17","55.6034","0.0","214.34","27","60.0","6"
"04/10/12 18:26:17","55.6037","11.0","214.56","0","60.03","6"
"04/10/12 18:31:16","55.604","0.0","214.38","0","60.03","6"
"04/11/12 06:41:18","55.6042","0.0","212.93","0","60.07","2"
"04/11/12 06:46:17","55.6044","14.0","214.11","62","60.0","2"
"04/11/12 06:51:17","55.6047","10.7","212.93","16","60.03","3"
"04/11/12 06:56:16","55.6049","14.3","212.22","1","60.0","3"
"04/11/12 07:01:16","55.6054","14.1","211.97","16","60.0","4"
"04/11/12 07:06:16","55.6059","14.1","212.1","1","60.07","4"
"04/11/12 07:11:16","55.6067","10.8","214.16","7","60.03","4"
"04/11/12 07:16:17","55.6076","12.6","213.36","14","60.07","4"
"04/11/12 07:21:17","55.6089","14.1","213.59","195","60.03","5"
"04/11/12 07:26:18","55.6104","21.0","213.4","42","60.07","5"
"04/11/12 07:31:16","55.6123","34.7","213.61","302","60.03","5"
"04/11/12 07:36:17","55.6145","33.2","213.87","66","60.03","5"
"04/11/12 07:41:17","55.6171","31.6","214.36","274","60.03","6"
"04/11/12 07:46:18","55.62","35.2","213.71","98","60.03","6"
"04/11/12 07:51:16","55.6234","41.0","214.1","251","60.03","6"
"04/11/12 07:56:16","55.6271","55.5","214.2","198","60.0","6"
"04/11/12 08:01:17","55.631","41.8","214.51","321","60.0","6"
"04/11/12 08:06:16","55.635","55.1","215.16","339","60.0","7"
"04/11/12 08:11:16","55.639","50.0","214.8","342","60.03","7"
"04/11/12 08:16:16","55.6435","84.7","215.81","414","60.03","7"
"04/11/12 08:21:17","55.6498","95.0","215.17","458","60.03","7"
"04/11/12 08:26:17","55.6573","87.1","216.36","425","60.03","8"
"04/11/12 08:31:17","55.6622","33.4","213.64","119","60.0","8"
"04/11/12 08:36:16","55.6654","48.1","213.94","309","60.03","8"
"04/11/12 08:41:17","55.6683","33.8","212.77","104","60.03","8"
"04/11/12 08:46:17","55.6713","31.5","214.01","292","60.03","8"
"04/11/12 08:51:17","55.6739","34.6","213.6","180","60.03","8"
"04/11/12 08:56:17","55.6758","31.7","214.59","52","60.03","8"
"04/11/12 09:01:17","55.6778","33.6","214.23","241","60.03","7"
"04/11/12 09:06:16","55.6807","42.8","214.87","261","60.0","8"
"04/11/12 09:11:16","55.6828","31.4","214.23","278","60.03","8"
"04/11/12 09:16:16","55.6845","30.5","214.28","271","60.03","8"
"04/11/12 09:21:17","55.6869","37.9","214.3","99","60.0","8"
"04/11/12 09:26:17","55.6898","52.0","214.67","194","60.03","8"
"04/11/12 09:31:17","55.6936","47.6","215.45","311","60.03","8"
"04/11/12 09:36:17","55.6966","42.3","215.93","332","60.03","8"
"04/11/12 09:41:17","55.7009","41.8","215.81","349","60.03","8"
"04/11/12 09:46:17","55.705","54.9","213.94","318","60.0","8"
"04/11/12 09:51:17","55.7087","39.4","213.4","353","60.07","9"
"04/11/12 09:56:16","55.7119","44.4","214.44","102","60.03","9"
"04/11/12 10:01:16","55.7158","63.9","215.41","214","60.0","9"
"04/11/12 10:06:17","55.7197","56.2","213.66","189","60.03","9"
"04/11/12 10:11:17","55.7197","41.5","214.56","183","60.03","9"
"04/11/12 10:16:16","55.7241","68.7","215.19","346","60.03","9"
"04/11/12 10:21:16","55.7285","52.3","214.31","276","60.0","9"
"04/11/12 10:26:17","55.7332","67.2","214.74","337","60.03","9"
"04/11/12 10:31:16","55.7379","65.7","215.19","264","60.03","9"
"04/11/12 10:36:16","55.742","67.2","215.32","375","60.03","10"
"04/11/12 10:41:17","55.7467","56.9","215.2","95","60.03","10"
"04/11/12 10:46:18","55.7511","46.3","214.63","273","60.0","10"
"04/11/12 10:51:16","55.7565","96.9","216.36","466","60.0","10"
"04/11/12 10:56:17","55.7625","70.1","215.86","351","60.03","10"
"04/11/12 11:01:17","55.7674","57.6","215.54","149","60.03","10"
"04/11/12 11:06:16","55.7729","71.9","216.24","357","60.03","10"
"04/11/12 11:11:17","55.7798","94.3","217.17","455","60.03","11"
"04/11/12 11:16:17","55.7859","68.2","216.58","342","60.03","11"
"04/11/12 11:21:17","55.7918","82.6","215.95","402","60.0","11"
"04/11/12 11:26:17","55.7993","90.6","216.31","440","60.03","11"
"04/11/12 11:31:17","55.8062","179.5","217.78","816","60.03","11"
"04/11/12 11:36:17","55.8142","70.3","216.18","347","60.03","11"
"04/11/12 11:41:16","55.8193","65.4","215.78","335","60.03","11"
"04/11/12 11:46:17","55.8257","92.6","216.59","444","60.0","11"
"04/11/12 11:51:17","55.8327","86.7","217.32","419","60.03","11"
"04/11/12 11:56:18","55.8392","73.8","215.74","366","60.03","11"
"04/11/12 12:01:18","55.8452","92.6","215.9","449","60.03","11"
"04/11/12 12:06:16","55.8517","77.4","216.47","384","60.03","11"
"04/11/12 12:11:17","55.8573","78.2","215.91","385","60.0","11"
"04/11/12 12:16:17","55.8645","94.1","216.57","452","60.03","11"
"04/11/12 12:21:18","55.8724","83.2","217.01","406","60.03","11"
"04/11/12 12:26:16","55.879","88.2","216.16","427","60.07","11"
"04/11/12 12:31:16","55.8845","66.9","215.3","338","60.07","11"
"04/11/12 12:36:17","55.8917","71.5","215.57","358","60.03","11"
"04/11/12 12:41:16","55.8997","100.7","216.26","481","60.03","11"
"04/11/12 12:46:17","55.9055","76.3","215.71","376","60.03","11"
"04/11/12 12:51:18","55.9127","92.3","215.7","447","60.03","11"
"04/11/12 12:56:18","55.9192","81.6","216.42","397","60.07","11"
"04/11/12 13:01:17","55.9251","75.2","215.32","374","60.0","11"
"04/11/12 13:06:16","55.9309","82.6","216.34","404","60.03","11"
"04/11/12 13:11:17","55.9369","71.3","215.47","356","60.03","11"
"04/11/12 13:16:17","55.9422","66.7","215.29","334","60.0","11"
"04/11/12 13:21:16","55.9479","74.2","215.53","371","60.0","10"
"04/11/12 13:26:17","55.9535","65.7","215.59","332","60.0","10"
"04/11/12 13:31:18","55.9597","84.4","216.49","414","60.03","10"
"04/11/12 13:36:17","55.9667","105.3","216.61","497","60.0","11"
"04/11/12 13:41:17","55.9742","79.3","216.45","392","60.03","11"
"04/11/12 13:46:16","55.9802","73.8","216.43","364","60.03","11"
"04/11/12 13:51:17","55.9866","81.1","216.94","394","60.03","11"
"04/11/12 13:56:17","55.9923","71.0","215.75","353","60.03","10"
"04/11/12 14:01:17","55.9977","66.8","215.47","335","60.0","10"
"04/11/12 14:06:17","56.0031","75.0","216.12","370","60.03","10"
"04/11/12 14:11:18","56.0083","56.2","215.25","195","60.0","11"
"04/11/12 14:16:17","56.013","63.1","215.09","320","60.03","10"
"04/11/12 14:21:17","56.0181","67.4","216.1","337","60.03","10"
"04/11/12 14:26:16","56.0231","66.5","217.01","335","60.03","10"
"04/11/12 14:31:17","56.0284","67.3","216.63","339","60.03","10"
"04/11/12 14:36:16","56.0336","66.0","215.85","335","60.03","10"
"04/11/12 14:41:17","56.0384","53.0","215.89","99","60.03","11"
"04/11/12 14:46:17","56.0432","68.2","215.88","343","60.0","10"
"04/11/12 14:51:16","56.0485","66.7","215.81","341","60.03","11"
"04/11/12 14:56:18","56.0535","62.8","215.17","322","60.03","10"
"04/11/12 15:01:16","56.0585","65.6","215.59","330","60.0","10"
"04/11/12 15:06:17","56.0638","67.5","216.16","338","60.03","10"
"04/11/12 15:11:16","56.0695","76.6","216.5","378","60.03","9"
"04/11/12 15:16:17","56.0754","76.0","216.11","374","60.0","9"
"04/11/12 15:21:16","56.0812","75.4","215.64","375","60.03","10"
"04/11/12 15:26:16","56.0871","69.9","215.98","352","60.07","10"
"04/11/12 15:31:17","56.0939","82.6","216.65","403","60.03","11"
"04/11/12 15:36:17","56.0994","62.4","215.11","102","60.03","10"
"04/11/12 15:41:16","56.1058","84.0","216.67","409","59.96","10"
"04/11/12 15:46:17","56.1144","174.7","218.6","792","60.03","11"
"04/11/12 15:51:16","56.1213","45.3","215.1","430","60.0","11"
"04/11/12 15:56:17","56.1253","69.6","215.12","251","60.07","11"
"04/11/12 16:01:16","56.1335","79.0","216.09","392","60.03","11"
"04/11/12 16:06:17","56.1412","118.5","216.39","559","60.0","11"
"04/11/12 16:11:17","56.1507","118.0","216.63","553","60.03","11"
"04/11/12 16:16:18","56.1591","113.6","216.77","536","60.0","12"
"04/11/12 16:21:16","56.1676","107.8","216.87","512","60.0","13"
"04/11/12 16:26:16","56.1758","103.9","216.47","489","60.0","12"
"04/11/12 16:31:16","56.1838","99.5","216.04","479","60.0","13"
"04/11/12 16:36:18","56.1913","95.3","215.18","460","60.03","12"
"04/11/12 16:41:17","56.1986","90.5","215.15","442","60.0","13"
"04/11/12 16:46:18","56.2055","86.6","215.54","420","60.03","12"
"04/11/12 16:51:17","56.212","81.7","215.01","404","60.03","12"
"04/11/12 16:56:17","56.2181","76.5","215.08","378","60.03","12"
"04/11/12 17:01:17","56.2239","71.5","214.79","362","60.07","12"
"04/11/12 17:06:17","56.2293","66.7","214.36","342","60.07","12"
"04/11/12 17:11:17","56.2343","62.0","214.79","319","60.03","12"
"04/11/12 17:16:16","56.2383","51.9","214.79","348","60.03","12"
"04/11/12 17:21:17","56.2423","41.6","214.5","291","60.03","12"
"04/11/12 17:26:17","56.2461","42.2","214.3","137","60.0","12"
"04/11/12 17:31:17","56.2495","47.3","214.24","237","60.0","12"
"04/11/12 17:36:18","56.2526","32.3","214.1","82","60.03","11"
"04/11/12 17:41:16","56.2553","28.5","213.77","139","60.03","11"
"04/11/12 17:46:17","56.2577","32.4","213.97","221","60.0","11"
"04/11/12 17:51:17","56.2597","31.7","214.05","30","60.03","11"
"04/11/12 17:56:17","56.2614","19.8","214.25","32","60.03","11"
"04/11/12 18:01:16","56.2629","16.5","214.41","68","60.03","11"
"04/11/12 18:06:16","56.264","15.4","213.93","23","60.0","10"
"04/11/12 18:11:18","56.2649","16.0","214.03","1","60.0","10"
"04/11/12 18:16:17","56.2655","0.0","213.71","0","60.0","10"
"04/11/12 18:21:16","56.266","0.0","214.03","177","60.03","10"
"04/11/12 18:26:17","56.2664","11.6","213.72","0","60.0","9"
"04/11/12 18:31:17","56.2667","10.3","213.73","0","60.03","9"
"04/11/12 18:36:18","56.2669","0.0","213.67","0","60.03","9"
"04/11/12 18:41:17","56.267","0.0","213.6","0","60.0","8"
"04/12/12 06:51:17","56.2671","0.0","213.9","0","60.03","-1"
"04/12/12 06:56:16","56.2673","0.0","214.15","0","60.03","0"
"04/12/12 07:01:16","56.2677","0.0","213.82","0","60.0","0"
"04/12/12 07:06:17","56.2682","0.0","213.68","0","60.0","1"
"04/12/12 07:11:17","56.2689","6.2","214.72","163","60.0","2"
"04/12/12 07:16:18","56.2698","12.2","213.42","152","60.03","2"
"04/12/12 07:21:16","56.271","15.7","213.73","11","60.0","3"
"04/12/12 07:26:17","56.2725","14.2","214.24","115","60.07","3"
"04/12/12 07:31:17","56.2743","26.5","214.35","200","60.0","4"
"04/12/12 07:36:17","56.2764","27.0","214.16","65","60.03","4"
"04/12/12 07:41:17","56.2791","33.6","213.76","118","60.0","5"
"04/12/12 07:46:17","56.2822","48.4","212.83","184","60.03","5"
"04/12/12 07:51:17","56.2856","39.7","214.84","313","60.03","6"
"04/12/12 07:56:18","56.2894","47.4","214.97","107","60.03","6"
"04/12/12 08:01:17","56.2933","40.0","215.68","288","60.03","6"
"04/12/12 08:06:18","56.2971","56.1","215.3","110","60.0","7"
"04/12/12 08:11:18","56.301","54.1","215.84","98","60.03","8"